115P/Maury (2011)

Japanese version
Home page
Updated on December 7, 2011

---------------------------------------------------------------------

* Profile

* Pictures

* Orbital Elements

Epoch 2011 Oct. 6.0 TT = JDT 2455840.5
T 2011 Oct. 6.94372 TT                                  MPC
q   2.0350533            (2000.0)            P               Q
n   0.11256357     Peri.  120.06279     +0.44984495     +0.89302573
a   4.2481919      Node   176.60253     -0.87326390     +0.44263269
e   0.5209601      Incl.   11.70607     -0.18721562     +0.08112550
P   8.76
From 616 observations 1994 May 3-2011 Sept. 4, mean residual 0".7.
     Nongravitational parameters A1 = +0.90, A2 = -0.0259.

* Finding Charts

* Magnitudes Graph

        m1 = 10.5 + 5 log d + 15.0 log r

---------------------------------------------------------------------

The orbital elements are published on M.P.E.C. 2011-R35.
The charts are made with StellaNavigator Ver.8 (AstroArts).
The magnitudes graphs are made with Comet for Windows.

---------------------------------------------------------------------

Copyright(C) Seiichi Yoshida (comet@aerith.net). All rights reserved.